Big Rapids, MI

11:15 AM EST on December 15, 2019 (GMT -0500)
Roben-Hood

Weather History for KRQB - July, 2019

Change the Weather History Date:

Monday, July 15, 2019

  Actual Average Record
Temperature  
Mean Temperature 72 °F -  
Max Temperature 87 °F 81 °F 95 °F (1983)
Min Temperature 58 °F 58 °F 43 °F (1987)
Cooling Degree Days 8    
Growing Degree Days 22 (Base 50)    
Moisture  
Dew Point 64 °F    
Average Humidity 72    
Maximum Humidity 94    
Minimum Humidity 51    
Precipitation  
Precipitation 0.00 in - - ()
Sea Level Pressure  
Sea Level Pressure 30.03 in    
Wind  
Wind Speed 3 mph (SW)    
Max Wind Speed 17 mph    
Max Gust Speed 24 mph    
Visibility 10 miles    
Events      
Averages and records for this station are not official NWS values.
T = Trace of Precipitation, MM = Missing Value Source: NWS Daily Summary

Daily Weather History Graph

Daily Weather History Graph

Search for Another Location

Airport or City:

Astronomy

Jul. 15, 2019 Rise Set
Actual Time 6:13 AM EDT 9:21 PM EDT
Civil Twilight 5:39 AM EDT 9:56 PM EDT
Nautical Twilight 4:54 AM EDT 10:40 PM EDT
Astronomical Twilight 4:00 AM EDT 11:34 PM EDT
Moon 8:39 PM EDT 5:00 AM EDT
Length of Visible Light 16h 17m
Length of Day
15h 07m
Waxing Gibbous, 98% of the Moon is Illuminated
Jul 15
Waxing Gibbous
Jul 16
Full
Jul 24
Last Quarter
Jul 31
New
Aug 7
First Quarter

Hourly Weather History & Observations

Time (EDT) Temp. Heat Index Dew Point Humidity Pressure Visibility Wind Dir Wind Speed Gust Speed Precip Events Conditions
12:15 AM 63.3 °F - 58.1 °F 83% 30.12 in 10.0 mi Calm Calm - N/A   Clear
12:16 AM 63.1 °F - 58.1 °F 84% 30.12 in 10.0 mi Calm Calm - N/A   Clear
12:35 AM 61.9 °F - 57.7 °F 86% 30.11 in 10.0 mi NNW 3.5 mph - N/A   Clear
12:36 AM 61.7 °F - 57.7 °F 87% 30.11 in 10.0 mi WNW 3.5 mph - N/A   Clear
12:58 AM 62.1 °F - 58.6 °F 89% 30.10 in 10.0 mi Calm Calm - N/A   Clear
1:16 AM 61.3 °F - 57.7 °F 88% 30.10 in 10.0 mi Calm Calm - N/A   Clear
1:35 AM 61.2 °F - 58.3 °F 90% 30.10 in 10.0 mi Calm Calm - N/A   Clear
1:36 AM 61.2 °F - 58.3 °F 90% 30.10 in 10.0 mi Calm Calm - N/A   Clear
1:55 AM 60.1 °F - 57.6 °F 91% 30.10 in 10.0 mi Calm Calm - N/A   Clear
1:56 AM 60.1 °F - 57.6 °F 91% 30.10 in 10.0 mi Calm Calm - N/A   Clear
2:18 AM 59.9 °F - 57.6 °F 92% 30.10 in 10.0 mi Calm Calm - N/A   Scattered Clouds
2:35 AM 59.9 °F - 57.6 °F 92% 30.10 in 10.0 mi Calm Calm - N/A   Mostly Cloudy
2:55 AM 61.3 °F - 58.6 °F 91% 30.10 in 10.0 mi Calm Calm - N/A   Overcast
2:56 AM 61.5 °F - 58.8 °F 91% 30.10 in 10.0 mi Calm Calm - N/A   Overcast
3:15 AM 61.7 °F - 58.6 °F 90% 30.09 in 10.0 mi Calm Calm - N/A   Overcast
3:38 AM 60.8 °F - 58.1 °F 91% 30.08 in 10.0 mi Calm Calm - N/A   Scattered Clouds
3:55 AM 60.1 °F - 57.6 °F 91% 30.08 in 10.0 mi Calm Calm - N/A   Clear
4:15 AM 59.0 °F - 56.3 °F 91% 30.07 in 10.0 mi Calm Calm - N/A   Clear
4:35 AM 59.2 °F - 56.7 °F 91% 30.07 in 10.0 mi Calm Calm - N/A   Clear
4:58 AM 59.4 °F - 57.0 °F 92% 30.07 in 10.0 mi Calm Calm - N/A   Clear
5:16 AM 59.2 °F - 57.2 °F 93% 30.07 in 10.0 mi Calm Calm - N/A   Clear
5:35 AM 59.2 °F - 57.2 °F 93% 30.06 in 10.0 mi Calm Calm - N/A   Clear
5:55 AM 59.2 °F - 57.2 °F 93% 30.06 in 10.0 mi Calm Calm - N/A   Clear
5:56 AM 59.2 °F - 57.2 °F 93% 30.06 in 10.0 mi Calm Calm - N/A   Clear
6:17 AM 58.6 °F - 56.7 °F 93% 30.06 in 10.0 mi Calm Calm - N/A   Clear
6:35 AM 59.0 °F - 57.2 °F 94% 30.06 in 10.0 mi Calm Calm - N/A   Clear
6:55 AM 59.2 °F - 57.6 °F 94% 30.06 in 10.0 mi Calm Calm - N/A   Clear
6:56 AM 59.2 °F - 57.6 °F 94% 30.06 in 10.0 mi Calm Calm - N/A   Clear
7:16 AM 61.2 °F - 59.0 °F 93% 30.06 in 10.0 mi Calm Calm - N/A   Clear
7:39 AM 62.6 °F - 60.3 °F 92% 30.07 in 10.0 mi Calm Calm - N/A   Clear
7:57 AM 64.0 °F - 60.8 °F 89% 30.08 in 10.0 mi Calm Calm - N/A   Clear
8:15 AM 66.0 °F - 60.8 °F 83% 30.09 in 10.0 mi WNW 5.8 mph - N/A   Scattered Clouds
8:35 AM 68.0 °F - 60.8 °F 78% 30.08 in 10.0 mi South 5.8 mph - N/A   Scattered Clouds
8:36 AM 68.2 °F - 61.0 °F 78% 30.08 in 10.0 mi South 5.8 mph - N/A   Scattered Clouds
8:55 AM 70.2 °F - 60.8 °F 72% 30.08 in 10.0 mi South 4.6 mph - N/A   Clear
9:18 AM 71.8 °F - 61.9 °F 71% 30.08 in 10.0 mi SSE 9.2 mph - N/A   Clear
9:36 AM 72.9 °F - 63.1 °F 71% 30.07 in 10.0 mi SE 4.6 mph - N/A   Mostly Cloudy
9:55 AM 74.8 °F - 65.1 °F 72% 30.07 in 10.0 mi SSW 9.2 mph - N/A   Overcast
9:56 AM 75.0 °F - 65.3 °F 72% 30.07 in 10.0 mi SSW 11.5 mph - N/A   Overcast
10:15 AM 76.6 °F - 66.6 °F 71% 30.06 in 10.0 mi SSW 5.8 mph - N/A   Scattered Clouds
10:19 AM 76.6 °F - 66.7 °F 71% 30.06 in 10.0 mi SSW 6.9 mph - N/A   Scattered Clouds
10:36 AM 77.0 °F - 67.1 °F 71% 30.06 in 10.0 mi SSE 3.5 mph - N/A   Mostly Cloudy
10:55 AM 80.2 °F 83.0 °F 68.4 °F 67% 30.06 in 10.0 mi SSW 10.4 mph - N/A   Overcast
10:56 AM 80.1 °F 82.7 °F 68.2 °F 67% 30.06 in 10.0 mi SSW 6.9 mph - N/A   Overcast
11:15 AM 79.5 °F - 68.7 °F 69% 30.06 in 10.0 mi Calm Calm - N/A   Overcast
11:16 AM 79.5 °F - 68.7 °F 69% 30.06 in 10.0 mi Calm Calm - N/A   Overcast
11:35 AM 81.5 °F 84.4 °F 68.4 °F 64% 30.05 in 10.0 mi WSW 4.6 mph - N/A   Mostly Cloudy
11:40 AM 81.5 °F 84.6 °F 68.5 °F 65% 30.04 in 10.0 mi West 3.5 mph - N/A   Scattered Clouds
11:58 AM 80.8 °F 83.6 °F 68.5 °F 66% 30.04 in 10.0 mi Calm Calm - N/A   Clear
12:15 PM 79.9 °F - 69.1 °F 69% 30.04 in 10.0 mi SW 3.5 mph - N/A   Clear
12:35 PM 80.1 °F 83.0 °F 69.6 °F 70% 30.04 in 10.0 mi SW 5.8 mph - N/A   Clear
12:36 PM 80.1 °F 83.0 °F 69.4 °F 70% 30.04 in 10.0 mi WSW 4.6 mph - N/A   Clear
12:55 PM 82.8 °F 86.7 °F 70.0 °F 65% 30.03 in 10.0 mi West 3.5 mph - N/A   Clear
1:00 PM 83.7 °F 87.7 °F 69.8 °F 63% 30.03 in 10.0 mi SW 3.5 mph - N/A   Scattered Clouds
1:18 PM 83.7 °F 88.3 °F 70.7 °F 65% 30.02 in 10.0 mi SSW 3.5 mph - N/A   Scattered Clouds
1:35 PM 83.1 °F 87.6 °F 70.7 °F 66% 30.01 in 10.0 mi SW 5.8 mph - N/A   Mostly Cloudy
1:55 PM 84.2 °F 89.0 °F 70.9 °F 64% 30.01 in 10.0 mi SW 8.1 mph - N/A   Mostly Cloudy
1:56 PM 84.2 °F 89.0 °F 70.9 °F 64% 30.01 in 10.0 mi SW 5.8 mph - N/A   Mostly Cloudy
2:15 PM 84.4 °F 89.7 °F 71.2 °F 65% 30.00 in 10.0 mi WSW 6.9 mph - N/A   Overcast
2:20 PM 84.2 °F 89.0 °F 70.9 °F 64% 29.99 in 10.0 mi WSW 4.6 mph - N/A   Overcast
2:38 PM 83.5 °F 88.5 °F 71.6 °F 67% 29.99 in 10.0 mi WSW 8.1 mph - N/A   Overcast
2:56 PM 85.1 °F 91.1 °F 72.0 °F 65% 29.98 in 10.0 mi West 6.9 mph - N/A   Mostly Cloudy
3:15 PM 85.1 °F 90.4 °F 71.2 °F 63% 29.98 in 10.0 mi SW 10.4 mph 17.3 mph N/A   Mostly Cloudy
3:16 PM 84.9 °F 90.1 °F 71.2 °F 63% 29.98 in 10.0 mi SW 12.7 mph 17.3 mph N/A   Mostly Cloudy
3:35 PM 86.4 °F 92.2 °F 71.2 °F 61% 29.97 in 10.0 mi WSW 13.8 mph 21.9 mph N/A   Mostly Cloudy
3:58 PM 86.4 °F 92.2 °F 71.4 °F 61% 29.97 in 10.0 mi WSW 15.0 mph 23.0 mph N/A   Mostly Cloudy
4:15 PM 86.0 °F 91.1 °F 70.9 °F 60% 29.97 in 10.0 mi SW 15.0 mph 21.9 mph N/A   Mostly Cloudy
4:16 PM 85.8 °F 90.8 °F 70.7 °F 60% 29.97 in 10.0 mi SW 12.7 mph 21.9 mph N/A   Mostly Cloudy
4:35 PM 86.4 °F 91.1 °F 70.2 °F 58% 29.97 in 10.0 mi WSW 12.7 mph 24.2 mph N/A   Mostly Cloudy
4:57 PM 86.5 °F 91.0 °F 69.6 °F 57% 29.96 in 10.0 mi WSW 17.3 mph 23.0 mph N/A   Scattered Clouds
5:16 PM 86.9 °F 91.0 °F 68.9 °F 55% 29.95 in 10.0 mi West 17.3 mph 23.0 mph N/A   Scattered Clouds
5:35 PM 87.1 °F 90.6 °F 68.0 °F 53% 29.94 in 10.0 mi WSW 10.4 mph 21.9 mph N/A   Scattered Clouds
5:55 PM 85.5 °F 88.8 °F 68.2 °F 56% 29.94 in 10.0 mi SW 11.5 mph 18.4 mph N/A   Mostly Cloudy
6:00 PM 85.5 °F 88.5 °F 67.6 °F 55% 29.95 in 10.0 mi WSW 10.4 mph 17.3 mph N/A   Mostly Cloudy
6:18 PM 86.0 °F 88.2 °F 66.0 °F 51% 29.94 in 10.0 mi SW 17.3 mph 23.0 mph N/A   Scattered Clouds
6:35 PM 85.5 °F 88.2 °F 66.9 °F 54% 29.96 in 10.0 mi SW 10.4 mph - N/A   Clear
6:55 PM 85.1 °F 86.9 °F 64.9 °F 51% 29.97 in 10.0 mi WSW 10.4 mph 18.4 mph N/A   Scattered Clouds
6:56 PM 85.1 °F 86.9 °F 64.9 °F 51% 29.97 in 10.0 mi WSW 9.2 mph 18.4 mph N/A   Scattered Clouds
7:18 PM 84.2 °F 85.6 °F 64.2 °F 51% 29.97 in 10.0 mi WSW 9.2 mph 18.4 mph N/A   Clear
7:36 PM 83.7 °F 85.1 °F 64.4 °F 52% 29.97 in 10.0 mi WSW 8.1 mph - N/A   Scattered Clouds
7:55 PM 83.5 °F 84.7 °F 63.5 °F 51% 29.96 in 10.0 mi SW 5.8 mph - N/A   Scattered Clouds
8:15 PM 82.2 °F 83.5 °F 63.5 °F 53% 29.96 in 10.0 mi SW 8.1 mph - N/A   Clear
8:20 PM 81.9 °F 83.2 °F 63.5 °F 54% 29.96 in 10.0 mi SW 6.9 mph - N/A   Clear
8:37 PM 81.1 °F 82.5 °F 63.5 °F 55% 29.96 in 10.0 mi SW 4.6 mph - N/A   Clear
8:56 PM 80.1 °F 81.6 °F 63.5 °F 57% 29.95 in 10.0 mi SSW 3.5 mph - N/A   Clear
9:15 PM 78.8 °F - 63.7 °F 60% 29.95 in 10.0 mi Calm Calm - N/A   Clear
9:35 PM 78.1 °F - 63.9 °F 61% 29.95 in 10.0 mi Calm Calm - N/A   Clear
9:36 PM 78.1 °F - 63.9 °F 61% 29.95 in 10.0 mi Calm Calm - N/A   Clear
9:59 PM 77.4 °F - 64.0 °F 63% 29.95 in 10.0 mi SSW 3.5 mph - N/A   Clear
10:17 PM 77.0 °F - 64.0 °F 64% 29.95 in 10.0 mi SSW 5.8 mph - N/A   Clear
10:35 PM 77.5 °F - 63.9 °F 63% 29.96 in 10.0 mi SW 5.8 mph - N/A   Clear
10:36 PM 77.5 °F - 63.9 °F 63% 29.96 in 10.0 mi SW 5.8 mph - N/A   Clear
10:55 PM 78.1 °F - 63.7 °F 61% 29.97 in 10.0 mi SW 8.1 mph - N/A   Clear
10:56 PM 77.9 °F - 63.7 °F 61% 29.97 in 10.0 mi SW 6.9 mph - N/A   Clear
11:15 PM 77.9 °F - 64.4 °F 63% 29.97 in 10.0 mi SW 5.8 mph - N/A   Clear
11:38 PM 77.7 °F - 65.1 °F 65% 29.98 in 10.0 mi SW 9.2 mph - N/A   Clear
11:56 PM 77.9 °F - 65.3 °F 65% 29.98 in 10.0 mi WSW 9.2 mph 19.6 mph N/A   Clear